sat.trackr.live / text

‹ back to catalog

XIWANG-1 (HOPE-1)

NORAD 36122 · 2009-072B

PAYLOAD ACTIVE UNKNOWN

§ Identity

Operator
Country
PRC
Launch date
2009-12-15
Launch site
TAISC
Launch vehicle
Mass (kg)
RCS (m²)
0.31

Purposes: comms

External: N2YO · Heavens-Above · Gunter

§ Orbital elements

Epoch: 2026-05-25T03:21:48.910752Z

Period
109.39 min
Inclination
100.4015°
Eccentricity
0.0006880
Mean motion
13.16440469 rev/d
Perigee alt
1,193.1 km
Apogee alt
1,203.6 km
Semi-major
7,576.5 km
B*
1.0676e-3
RAAN
99.3422°
Arg perigee
289.1607°
Mean anomaly
70.8761°
Rev number
78,997

§ Raw data

XIWANG-1 (HOPE-1)1 36122U 09072B   26145.14014943  .00000363  00000+0  10676-2 0  99992 36122 100.4015  99.3422 0006880 289.1607  70.8761 13.16440469789978

JSON: /api/v1/satellites/36122 · /tle

For live sub-satellite position, see the globe view (requires WebGL).

§ Visibility from observer

Set your observer location to see the next 7 days of passes ≥ 10°. The values pass through the URL so the page stays shareable.

No JS? Fill the form by hand. The geolocation button needs JavaScript.

§ Radio — SatNOGS DB

ModeDescriptionDownlinkUplink
CW CW Beacon 435.791 MHz
FM Mode V/U FM 435.675 MHz 145.825 MHz
AFSK Mode V/U BBS AFSK (inactive) 435.675 MHz 145.825 MHz
FMN Mode V/U Linear (inactive) 435.715 MHz–435.765 MHz 145.925 MHz–145.975 MHz

4 transmitters · refreshed weekly from db.satnogs.org